Weather History for Muskegon, MI

Change the Weather History Date:

Friday, July 19, 2013

  Actual Average Record
Temperature  
Mean Temperature 83 °F 71 °F  
Max Temperature 90 °F 81 °F 94 °F (2011)
Min Temperature 76 °F 62 °F 44 °F (1912)
Degree Days  
Heating Degree Days 0 0  
Month to date heating degree days 2 4  
Since 1 June heating degree days 54 70  
Since 1 July heating degree days 2 4  
Cooling Degree Days 18 7  
Month to date cooling degree days 181 124  
Year to date cooling degree days 341 258  
Since 1 June cooling degree days 281 229  
Growing Degree Days 35 (Base 50)    
Moisture  
Dew Point 71 °F    
Average Humidity 66    
Maximum Humidity 79    
Minimum Humidity 52    
Precipitation  
Precipitation T in 0.07 in 1.74 in (1950)
Month to date precipitation 0.60 1.36  
Year to date precipitation 27.62 16.18  
Snow  
Snow 0.00 in 0.00 in - ()
Month to date snowfall 0.0 0.0  
Since 1 June snowfall 0.0 0.0  
Since 1 July snowfall 0.0 0.0  
Snow Depth 0.00 in    
Sea Level Pressure  
Sea Level Pressure 29.79 in    
Wind  
Wind Speed 15 mph (SW)    
Max Wind Speed 25 mph    
Max Gust Speed 35 mph    
Visibility 10 miles    
Events Rain    
T = Trace of Precipitation, MM = Missing Value Source: NWS Daily Summary

Daily Weather History Graph

Daily Weather History Graph

Search for Another Location

Airport:

Trip Planner

Search our weather history database for the weather conditions in past years. The results will help you decide how hot, cold, wet, or windy it might be!

Date:

Astronomy

Jul. 19, 2013 Rise Set
Actual Time 6:22 AM EDT 9:19 PM EDT
Civil Twilight 5:48 AM EDT 9:53 PM EDT
Nautical Twilight 5:05 AM EDT 10:35 PM EDT
Astronomical Twilight 4:15 AM EDT 11:26 PM EDT
Moon 6:21 PM EDT (7/19) 3:03 AM EDT (7/19)
Length of Visible Light 16h 04m
Length of Day
14h 56m
Waxing Gibbous, 86% of the Moon is Illuminated
Jul 19
Waxing Gibbous
Jul 22
Full
Jul 29
Last Quarter
Aug 6
New
Aug 14
First Quarter

Hourly Weather History & Observations

Time (EDT) Temp. Heat Index Dew Point Humidity Pressure Visibility Wind Dir Wind Speed Gust Speed Precip Events Conditions
12:55 AM 81.0 °F 85.8 °F 73.0 °F 77% 29.91 in 10.0 mi SW 12.7 mph - N/A   Clear
1:55 AM 81.0 °F 85.8 °F 73.0 °F 77% 29.90 in 10.0 mi SW 13.8 mph - N/A   Clear
2:55 AM 81.0 °F 85.8 °F 73.0 °F 77% 29.88 in 10.0 mi SW 13.8 mph 21.9 mph N/A   Clear
3:55 AM 81.0 °F 85.8 °F 73.0 °F 77% 29.87 in 10.0 mi SW 16.1 mph - N/A   Clear
4:55 AM 81.0 °F 85.8 °F 73.0 °F 77% 29.84 in 10.0 mi SW 16.1 mph - N/A   Clear
5:55 AM 80.1 °F 83.8 °F 72.0 °F 76% 29.83 in 10.0 mi SW 16.1 mph - N/A   Clear
6:55 AM 80.1 °F 83.8 °F 72.0 °F 76% 29.83 in 10.0 mi SSW 16.1 mph - N/A   Clear
7:55 AM 81.0 °F 85.2 °F 72.0 °F 74% 29.83 in 10.0 mi SW 17.3 mph 24.2 mph N/A   Partly Cloudy
8:55 AM 82.0 °F 86.3 °F 71.1 °F 69% 29.83 in 10.0 mi SW 18.4 mph 24.2 mph N/A   Overcast
9:55 AM 84.0 °F 89.6 °F 72.0 °F 67% 29.83 in 10.0 mi SW 18.4 mph 27.6 mph N/A   Mostly Cloudy
10:55 AM 82.9 °F 87.5 °F 71.1 °F 67% 29.81 in 10.0 mi SW 20.7 mph 33.4 mph N/A   Mostly Cloudy
11:55 AM 86.0 °F 91.5 °F 71.1 °F 61% 29.80 in 10.0 mi SW 23.0 mph 29.9 mph N/A   Mostly Cloudy
12:55 PM 86.0 °F 91.5 °F 71.1 °F 61% 29.78 in 10.0 mi SSW 23.0 mph 32.2 mph N/A   Mostly Cloudy
1:55 PM 88.0 °F 94.7 °F 72.0 °F 59% 29.77 in 10.0 mi SSW 20.7 mph 28.8 mph N/A   Scattered Clouds
2:55 PM 88.0 °F 93.8 °F 71.1 °F 57% 29.76 in 10.0 mi SW 18.4 mph - N/A   Mostly Cloudy
3:55 PM 88.0 °F 92.9 °F 70.0 °F 55% 29.74 in 10.0 mi SW 19.6 mph 26.5 mph N/A   Mostly Cloudy
4:55 PM 90.0 °F 95.4 °F 70.0 °F 52% 29.74 in 10.0 mi WSW 16.1 mph 23.0 mph N/A   Scattered Clouds
5:55 PM 88.0 °F 93.8 °F 71.1 °F 57% 29.73 in 10.0 mi SW 9.2 mph 16.1 mph N/A   Scattered Clouds
6:55 PM 86.0 °F 90.7 °F 70.0 °F 59% 29.71 in 10.0 mi West 9.2 mph - N/A   Scattered Clouds
7:55 PM 84.0 °F 89.0 °F 71.1 °F 65% 29.72 in 10.0 mi WSW 11.5 mph - N/A   Scattered Clouds
8:55 PM 82.9 °F 87.0 °F 70.0 °F 65% 29.72 in 10.0 mi WSW 9.2 mph - N/A   Scattered Clouds
9:55 PM 82.0 °F 85.9 °F 70.0 °F 67% 29.71 in 10.0 mi West 9.2 mph - N/A   Scattered Clouds
10:55 PM 81.0 °F 84.9 °F 71.1 °F 72% 29.73 in 10.0 mi West 17.3 mph 28.8 mph 0.00 in Rain Light Rain
11:55 PM 77.0 °F - 68.0 °F 74% 29.74 in 10.0 mi West 4.6 mph - 0.00 in   Clear